Weather History for Middleton, WI

Change the Weather History Date:

Monday, January 13, 2014

  Actual Average (KMSN) Record (KMSN)
Temperature  
Mean Temperature 34 °F 18 °F  
Max Temperature 41 °F 26 °F 53 °F (1961)
Min Temperature 27 °F 11 °F -22 °F (1916)
Degree Days  
Heating Degree Days 31 47  
Month to date heating degree days 600  
Since 1 July heating degree days 3479  
Cooling Degree Days 0 0  
Month to date cooling degree days 0  
Year to date cooling degree days 0  
Moisture  
Dew Point 27 °F    
Average Humidity 72    
Maximum Humidity 83    
Minimum Humidity 57    
Precipitation  
Precipitation 0.00 in 0.04 in 1.21 in (1910)
Month to date precipitation 0.53  
Year to date precipitation 0.53  
Snow  
Snow 0.00 in 0.40 in 7.30 in (1979)
Month to date snowfall 5.3  
Since 1 July snowfall 22.9  
Snow Depth -    
Sea Level Pressure  
Sea Level Pressure 29.59 in    
Wind  
Wind Speed 7 mph (WSW)    
Max Wind Speed 16 mph    
Max Gust Speed 21 mph    
Visibility 10 miles    
Events      
T = Trace of Precipitation, MM = Missing Value Source: NWS Daily Summary

Daily Weather History Graph

Daily Weather History Graph

Search for Another Location

Airport:

Trip Planner

Search our weather history database for the weather conditions in past years. The results will help you decide how hot, cold, wet, or windy it might be!

Date:

Astronomy

Jan. 13, 2014 Rise Set
Actual Time 7:27 AM CST 4:46 PM CST
Civil Twilight 6:56 AM CST 5:17 PM CST
Nautical Twilight 6:20 AM CST 5:53 PM CST
Astronomical Twilight 5:46 AM CST 6:27 PM CST
Moon 3:01 PM CST (1/13) 5:16 AM CST (1/13)
Length of Visible Light 10h 21m
Length of Day
9h 18m
Waxing Gibbous, 95% of the Moon is Illuminated
Jan 13
Waxing Gibbous
Jan 15
Full
Jan 23
Last Quarter
Jan 30
New
Feb 6
First Quarter

Hourly Weather History & Observations

Time (CST) Temp. Windchill Dew Point Humidity Pressure Visibility Wind Dir Wind Speed Gust Speed Precip Events Conditions
12:15 AM 39.2 °F 33.6 °F 32.4 °F 76% 29.52 in 10.0 mi SW 8.1 mph - N/A   Overcast
12:35 AM 39.0 °F 33.4 °F 32.2 °F 76% 29.52 in 10.0 mi SSW 8.1 mph - N/A   Overcast
12:55 AM 38.7 °F 33.6 °F 32.2 °F 78% 29.52 in 10.0 mi SSW 6.9 mph - N/A   Overcast
1:15 AM 38.7 °F 33.6 °F 32.2 °F 78% 29.52 in 10.0 mi SW 6.9 mph - N/A   Overcast
1:35 AM 38.3 °F 33.9 °F 32.2 °F 79% 29.53 in 10.0 mi WSW 5.8 mph - N/A   Overcast
1:55 AM 38.7 °F 33.6 °F 32.0 °F 77% 29.53 in 10.0 mi SW 6.9 mph - N/A   Overcast
2:15 AM 38.1 °F - 32.0 °F 79% 29.53 in 10.0 mi Calm Calm - N/A   Overcast
2:35 AM 37.9 °F 35.5 °F 32.0 °F 79% 29.52 in 10.0 mi SSW 3.5 mph - N/A   Overcast
2:55 AM 37.9 °F - 32.0 °F 79% 29.52 in 10.0 mi Calm Calm - N/A   Overcast
3:15 AM 37.4 °F 34.9 °F 32.0 °F 81% 29.51 in 10.0 mi SW 3.5 mph - N/A   Overcast
3:35 AM 37.2 °F 32.6 °F 32.0 °F 81% 29.51 in 10.0 mi South 5.8 mph - N/A   Overcast
3:55 AM 37.6 °F 34.0 °F 32.0 °F 80% 29.51 in 10.0 mi SSW 4.6 mph - N/A   Overcast
4:15 AM 37.4 °F 32.8 °F 32.0 °F 81% 29.51 in 10.0 mi SSW 5.8 mph - N/A   Overcast
4:35 AM 37.4 °F 32.8 °F 32.0 °F 81% 29.51 in 10.0 mi SW 5.8 mph - N/A   Overcast
4:55 AM 37.4 °F 34.9 °F 32.0 °F 81% 29.51 in 10.0 mi SW 3.5 mph - N/A   Overcast
5:15 AM 37.4 °F 32.1 °F 32.0 °F 81% 29.51 in 10.0 mi SW 6.9 mph - N/A   Overcast
5:35 AM 37.4 °F 34.9 °F 32.0 °F 81% 29.51 in 10.0 mi West 3.5 mph - N/A   Overcast
5:55 AM 37.4 °F - 32.0 °F 81% 29.52 in 10.0 mi Calm Calm - N/A   Overcast
6:15 AM 36.9 °F 32.2 °F 32.0 °F 83% 29.53 in 10.0 mi West 5.8 mph - N/A   Overcast
6:35 AM 36.9 °F 33.1 °F 32.0 °F 83% 29.53 in 10.0 mi WSW 4.6 mph - N/A   Overcast
6:55 AM 37.0 °F - 32.0 °F 82% 29.52 in 10.0 mi Calm Calm - N/A   Overcast
7:15 AM 36.9 °F - 32.0 °F 83% 29.51 in 10.0 mi Calm Calm - N/A   Overcast
7:35 AM 37.4 °F - 32.0 °F 81% 29.53 in 10.0 mi Calm Calm - N/A   Mostly Cloudy
7:55 AM 37.6 °F 32.3 °F 31.8 °F 80% 29.53 in 10.0 mi West 6.9 mph - N/A   Overcast
8:15 AM 37.4 °F 31.4 °F 31.8 °F 80% 29.53 in 10.0 mi West 8.1 mph - N/A   Overcast
8:35 AM 37.4 °F 30.8 °F 31.8 °F 80% 29.53 in 10.0 mi West 9.2 mph - N/A   Overcast
8:55 AM 37.6 °F 31.6 °F 31.8 °F 80% 29.53 in 10.0 mi West 8.1 mph - N/A   Overcast
9:15 AM 37.9 °F 33.5 °F 31.8 °F 79% 29.54 in 10.0 mi West 5.8 mph - N/A   Overcast
9:35 AM 38.3 °F 32.5 °F 31.6 °F 77% 29.55 in 10.0 mi West 8.1 mph - N/A   Overcast
9:55 AM 38.5 °F 34.1 °F 31.6 °F 76% 29.54 in 10.0 mi West 5.8 mph - N/A   Scattered Clouds
10:15 AM 39.2 °F 35.9 °F 31.1 °F 73% 29.55 in 10.0 mi West 4.6 mph - N/A   Clear
10:35 AM 40.3 °F 34.9 °F 31.1 °F 70% 29.55 in 10.0 mi West 8.1 mph - N/A   Clear
10:55 AM 41.0 °F 34.3 °F 30.7 °F 67% 29.55 in 10.0 mi WNW 11.5 mph - N/A   Clear
11:15 AM 41.0 °F 35.2 °F 30.7 °F 67% 29.54 in 10.0 mi West 9.2 mph - N/A   Clear
11:35 AM 41.4 °F 36.8 °F 30.7 °F 66% 29.54 in 10.0 mi WNW 6.9 mph - N/A   Clear
11:55 AM 41.7 °F 36.7 °F 30.4 °F 64% 29.54 in 10.0 mi West 8.1 mph 16.1 mph N/A   Clear
12:15 PM 41.2 °F 34.5 °F 30.9 °F 67% 29.54 in 10.0 mi West 11.5 mph - N/A   Clear
12:35 PM 40.6 °F 32.3 °F 30.6 °F 67% 29.55 in 10.0 mi West 16.1 mph 20.7 mph N/A   Mostly Cloudy
12:55 PM 40.6 °F 32.3 °F 30.0 °F 66% 29.56 in 10.0 mi West 16.1 mph 20.7 mph N/A   Overcast
1:15 PM 39.2 °F 30.5 °F 29.8 °F 69% 29.56 in 10.0 mi West 16.1 mph - N/A   Overcast
1:35 PM 37.4 °F 30.3 °F 29.3 °F 73% 29.57 in 10.0 mi NW 10.4 mph - N/A   Overcast
1:55 PM 36.5 °F 28.7 °F 29.3 °F 75% 29.58 in 10.0 mi West 11.5 mph 18.4 mph N/A   Overcast
2:15 PM 36.1 °F 27.7 °F 29.1 °F 76% 29.58 in 10.0 mi West 12.7 mph - N/A   Overcast
2:35 PM 37.0 °F 29.8 °F 28.4 °F 71% 29.60 in 10.0 mi West 10.4 mph - N/A   Overcast
2:55 PM 36.7 °F 29.4 °F 28.2 °F 71% 29.61 in 10.0 mi WNW 10.4 mph - N/A   Mostly Cloudy
3:15 PM 36.7 °F 29.4 °F 27.1 °F 68% 29.62 in 10.0 mi West 10.4 mph - N/A   Scattered Clouds
3:35 PM 36.5 °F 28.7 °F 25.5 °F 64% 29.63 in 10.0 mi WNW 11.5 mph 17.3 mph N/A   Clear
3:55 PM 36.1 °F 27.3 °F 24.8 °F 63% 29.63 in 10.0 mi West 13.8 mph - N/A   Clear
4:15 PM 35.8 °F 28.8 °F 23.5 °F 61% 29.63 in 10.0 mi West 9.2 mph - N/A   Clear
4:35 PM 35.1 °F 26.4 °F 22.1 °F 59% 29.64 in 10.0 mi West 12.7 mph - N/A   Clear
4:55 PM 34.7 °F 26.4 °F 21.2 °F 58% 29.65 in 10.0 mi West 11.5 mph - N/A   Clear
5:15 PM 34.0 °F 25.5 °F 20.3 °F 57% 29.65 in 10.0 mi West 11.5 mph 17.3 mph N/A   Clear
5:35 PM 33.1 °F 23.4 °F 19.4 °F 57% 29.66 in 10.0 mi West 13.8 mph - N/A   Clear
5:55 PM 32.4 °F 24.0 °F 19.6 °F 59% 29.67 in 10.0 mi West 10.4 mph - N/A   Clear
6:15 PM 32.0 °F 23.6 °F 19.6 °F 60% 29.68 in 10.0 mi West 10.4 mph - N/A   Clear
6:35 PM 32.0 °F 23.0 °F 19.4 °F 60% 29.68 in 10.0 mi West 11.5 mph - N/A   Clear
6:55 PM 31.3 °F 23.9 °F 19.0 °F 61% 29.68 in 10.0 mi West 8.1 mph - N/A   Clear
7:15 PM 30.9 °F 22.2 °F 18.9 °F 61% 29.68 in 10.0 mi West 10.4 mph - N/A   Clear
7:35 PM 30.0 °F 23.2 °F 18.5 °F 62% 29.68 in 10.0 mi WSW 6.9 mph - N/A   Clear
7:55 PM 30.2 °F 25.4 °F 19.0 °F 63% 29.68 in 10.0 mi WSW 4.6 mph - N/A   Clear
8:15 PM 29.5 °F 23.4 °F 19.8 °F 67% 29.69 in 10.0 mi West 5.8 mph - N/A   Clear
8:35 PM 29.1 °F 22.1 °F 19.6 °F 68% 29.70 in 10.0 mi West 6.9 mph - N/A   Clear
8:55 PM 28.9 °F 22.8 °F 19.6 °F 68% 29.70 in 10.0 mi WSW 5.8 mph - N/A   Clear
9:15 PM 28.9 °F 25.2 °F 19.8 °F 69% 29.70 in 10.0 mi WSW 3.5 mph - N/A   Clear
9:35 PM 28.4 °F - 19.9 °F 71% 29.71 in 10.0 mi Calm Calm - N/A   Clear
9:55 PM 27.7 °F 22.4 °F 20.1 °F 73% 29.70 in 10.0 mi SSW 4.6 mph - N/A   Clear
10:15 PM 27.5 °F 22.2 °F 20.3 °F 74% 29.70 in 10.0 mi SW 4.6 mph - N/A   Clear
10:35 PM 27.9 °F 22.6 °F 21.0 °F 75% 29.71 in 10.0 mi WSW 4.6 mph - N/A   Mostly Cloudy
10:55 PM 28.4 °F - 21.6 °F 76% 29.70 in 10.0 mi Calm Calm - N/A   Overcast
11:15 PM 28.4 °F - 21.7 °F 76% 29.70 in 10.0 mi Calm Calm - N/A   Overcast
11:35 PM 28.2 °F - 21.9 °F 77% 29.70 in 10.0 mi Calm Calm - N/A   Overcast
11:55 PM 29.3 °F 25.6 °F 22.1 °F 75% 29.69 in 10.0 mi SW 3.5 mph - N/A   Overcast